EW3286 Weather Reports


Display with metric or nautical units.
time (UTC)temp
F
wind
direction
speed
MPH
gust
MPH
rain 1hr
in
rain 24hr
in
rain mn
in
humidity
%
barometer
mb
20260510093033 38 163 0.0 0.0 0.00 0.00 0.00 64 1019.0
20260510091535 37 194 0.0 0.0 0.00 0.00 0.00 66 1018.9
20260510090029 37 198 0.0 0.0 0.00 0.00 0.00 66 1018.7
20260510084524 37 198 0.0 0.0 0.00 0.00 0.00 68 1018.5
20260510083025 36 198 0.0 0.0 0.00 0.00 0.00 69 1018.2
20260510081520 36 198 0.0 0.0 0.00 0.00 0.00 68 1018.1
20260510080017 36 198 0.0 0.0 0.00 0.00 0.00 68 1017.9
20260510074516 36 198 0.0 0.0 0.00 0.00 0.00 67 1017.9
20260510073014 37 198 0.0 0.0 0.00 0.00 0.00 66 1017.9
20260510071517 37 198 0.0 0.0 0.00 0.00 0.00 66 1017.9
20260510070009 38 198 0.0 0.0 0.00 0.00 0.00 63 1017.7
20260510064515 38 198 0.0 0.0 0.00 0.00 0.00 61 1017.7
20260510063002 39 198 0.0 0.0 0.00 0.00 0.00 61 1017.6
20260510061558 40 198 0.0 0.0 0.00 0.00 0.00 59 1017.5
20260510060055 41 198 0.0 0.0 0.00 0.00 0.00 58 1017.6
20260510054551 42 238 0.0 0.0 0.00 0.00 0.00 54 1017.5
20260510053048 42 238 0.0 0.0 0.00 0.00 0.00 53 1017.3
20260510051550 42 238 0.0 0.0 0.00 0.00 0.00 52 1017.1
20260510050043 43 238 0.0 0.0 0.00 0.00 0.00 51 1016.9
20260510044541 43 238 0.0 0.0 0.00 0.00 0.00 50 1016.7
20260510043036 44 238 0.0 0.0 0.00 0.00 0.00 50 1016.7
20260510041532 45 238 0.0 0.0 0.00 0.00 0.00 49 1016.6
20260510040031 46 238 0.0 0.0 0.00 0.00 0.00 47 1016.5
20260510034529 46 237 0.0 0.0 0.00 0.00 0.00 47 1016.3
20260510033027 46 244 0.0 0.0 0.00 0.00 0.00 46 1016.1
20260510031527 47 244 0.0 0.0 0.00 0.00 0.00 44 1016.0
20260510030027 48 244 0.0 0.0 0.00 0.00 0.00 43 1015.9
20260510024524 49 244 0.0 0.0 0.00 0.00 0.00 41 1015.6
20260510023015 50 236 0.0 0.0 0.00 0.00 0.00 40 1015.4
20260510021519 51 256 0.0 0.0 0.00 0.00 0.00 39 1015.2
20260510020010 52 269 0.0 0.0 0.00 0.00 0.00 38 1014.8
20260510014507 53 253 0.0 0.0 0.00 0.00 0.00 37 1014.4
20260510013007 54 244 0.0 0.0 0.00 0.00 0.00 35 1014.2
20260510011501 55 246 0.0 0.0 0.00 0.00 0.00 33 1013.8
20260510010002 56 244 0.0 0.0 0.00 0.00 0.00 33 1013.7
20260510004559 56 242 0.0 0.0 0.00 0.00 0.00 33 1013.5
20260510003106 56 254 0.0 0.0 0.00 0.00 0.00 32 1013.4
20260510001555 57 240 0.0 0.0 0.00 0.00 0.00 31 1013.2
20260510000054 58 257 0.0 0.0 0.00 0.00 0.00 31 1013.0
20260509234556 58 259 0.0 0.0 0.00 0.00 0.00 31 1012.8
20260509233050 58 227 0.0 0.0 0.00 0.00 0.00 31 1012.7
20260509231556 58 215 0.0 0.0 0.00 0.00 0.00 31 1012.5
20260509230052 58 242 0.0 0.0 0.00 0.00 0.00 31 1012.2
20260509224555 58 246 0.0 0.0 0.00 0.00 0.00 31 1012.0
20260509223048 59 228 0.0 0.0 0.00 0.00 0.00 30 1011.9
20260509221541 59 255 0.0 0.0 0.00 0.00 0.00 32 1011.7
20260509220038 59 257 0.0 0.0 0.00 0.00 0.00 33 1011.6
20260509214541 59 249 0.0 0.0 0.00 0.00 0.00 33 1011.5
20260509213035 60 227 0.0 0.0 0.00 0.00 0.00 32 1011.4
20260509211532 60 246 0.0 0.0 0.00 0.00 0.00 32 1011.2
20260509210027 59 206 0.0 0.0 0.00 0.00 0.00 32 1011.0
20260509204524 59 273 0.0 0.0 0.00 0.00 0.00 33 1010.9
20260509203019 59 263 0.0 0.0 0.00 0.00 0.00 35 1010.9
20260509201516 60 243 0.0 0.0 0.00 0.00 0.00 32 1010.7
20260509200011 60 266 0.0 0.0 0.00 0.00 0.00 35 1010.4
20260509194505 59 233 0.0 0.0 0.00 0.00 0.00 35 1010.3
20260509193004 59 250 0.0 0.0 0.00 0.00 0.00 38 1010.2
20260509191558 59 266 0.0 0.0 0.00 0.00 0.00 37 1010.2
20260509190057 59 252 0.0 0.0 0.00 0.00 0.00 37 1010.0
20260509184553 58 254 0.0 0.0 0.00 0.00 0.00 39 1010.1
20260509183053 58 243 0.0 0.0 0.00 0.00 0.00 41 1010.0
20260509181607 58 227 0.0 0.0 0.00 0.00 0.00 41 1009.8
20260509180111 58 236 0.0 0.0 0.00 0.00 0.00 42 1009.6
20260509174546 58 238 0.0 0.0 0.00 0.00 0.00 43 1009.7
20260509173050 58 259 0.0 0.0 0.00 0.00 0.00 50 1009.6
20260509171549 57 248 0.0 0.0 0.00 0.00 0.00 45 1009.7
20260509170048 57 255 0.0 0.0 0.00 0.00 0.00 46 1009.4
20260509164534 57 240 0.0 0.0 0.00 0.00 0.00 50 1009.2
20260509163031 56 235 0.0 0.0 0.00 0.00 0.00 50 1009.2
20260509161527 55 240 0.0 0.0 0.00 0.00 0.00 54 1008.8
20260509160024 55 273 0.0 0.0 0.00 0.00 0.00 57 1008.5
20260509154522 55 261 0.0 0.0 0.00 0.00 0.00 63 1008.5
20260509153021 54 245 0.0 0.0 0.00 0.00 0.00 63 1008.3
20260509151515 53 252 0.0 0.0 0.00 0.00 0.00 65 1008.2
20260509150014 53 261 0.0 0.0 0.00 0.00 0.00 68 1008.2
20260509144517 52 246 0.0 0.0 0.00 0.00 0.00 73 1007.9
20260509143012 52 233 0.0 0.0 0.00 0.00 0.00 74 1007.8
20260509141512 53 257 0.0 0.0 0.00 0.00 0.00 74 1007.3
20260509140002 52 283 0.0 0.0 0.00 0.00 0.00 74 1006.9
20260509134601 53 246 0.0 0.0 0.00 0.00 0.00 72 1006.6
20260509133109 53 237 0.0 0.0 0.00 0.00 0.00 71 1006.7
20260509131559 53 227 0.0 0.0 0.00 0.00 0.00 70 1006.6
20260509130114 53 242 0.0 0.0 0.00 0.00 0.00 72 1006.7
20260509124551 51 180 0.0 0.0 0.00 0.00 0.00 73 1006.4
20260509123048 50 147 0.0 0.0 0.00 0.00 0.00 73 1005.9
20260509121549 49 218 0.0 0.0 0.00 0.00 0.00 72 1005.9
20260509120042 49 219 0.0 0.0 0.00 0.00 0.00 70 1006.0
20260509114540 49 216 0.0 0.0 0.00 0.00 0.00 69 1005.9
20260509113040 50 240 0.0 0.0 0.00 0.00 0.00 68 1006.1
20260509111536 50 239 0.0 0.0 0.00 0.00 0.00 66 1005.8
20260509110034 51 257 0.0 0.0 0.00 0.00 0.00 62 1005.7
20260509104539 52 251 0.0 0.0 0.00 0.00 0.00 57 1005.5
20260509103031 52 238 0.0 0.0 0.00 0.00 0.00 50 1005.5
20260509101530 51 215 0.0 0.0 0.00 0.00 0.00 49 1005.2
20260509100026 46 234 0.0 0.0 0.00 0.00 0.00 58 1003.7
20260509094529 47 167 0.0 0.0 0.00 0.00 0.00 56 1003.3